Time,TemperatureF,DewpointF,PressureIn,WindDirection,WindDirectionDegrees,WindSpeedMPH,WindSpeedGustMPH,Humidity,HourlyPrecipIn,Conditions,Clouds,dailyrainin,SoftwareType,DateUTC
2013-10-02 00:01:00,61.2,58.5,29.92,East,93,0.0,0.0,91,0.00,,,0.00,meteohub,2013-10-02 04:01:00,
2013-10-02 00:02:00,61.2,58.5,29.92,East,93,0.0,0.0,91,0.00,,,0.00,meteohub,2013-10-02 04:02:00,
2013-10-02 00:07:00,61.2,58.5,29.92,East,93,0.0,0.0,91,0.00,,,0.00,meteohub,2013-10-02 04:07:00,
2013-10-02 00:12:00,61.2,58.5,29.92,East,94,0.0,0.0,91,0.00,,,0.00,meteohub,2013-10-02 04:12:00,
2013-10-02 00:17:00,61.0,58.3,29.92,East,93,0.0,0.0,91,0.00,,,0.00,meteohub,2013-10-02 04:17:00,
2013-10-02 00:22:00,61.0,58.6,29.92,East,94,0.0,0.0,92,0.00,,,0.00,meteohub,2013-10-02 04:22:00,
2013-10-02 00:28:00,61.0,58.6,29.92,East,93,0.0,0.0,92,0.00,,,0.00,meteohub,2013-10-02 04:28:00,
2013-10-02 00:33:00,60.8,58.5,29.92,East,93,0.0,0.0,92,0.00,,,0.00,meteohub,2013-10-02 04:33:00,
2013-10-02 00:38:00,60.6,58.3,29.92,East,93,0.0,0.0,92,0.00,,,0.00,meteohub,2013-10-02 04:38:00,
2013-10-02 00:43:00,60.6,58.3,29.92,East,93,0.0,0.0,92,0.00,,,0.00,meteohub,2013-10-02 04:43:00,
2013-10-02 00:48:00,60.6,58.3,29.92,East,93,0.0,0.0,92,0.00,,,0.00,meteohub,2013-10-02 04:48:00,
2013-10-02 00:53:00,60.4,58.1,29.92,East,93,0.0,0.0,92,0.00,,,0.00,meteohub,2013-10-02 04:53:00,
2013-10-02 00:58:00,60.3,57.9,29.92,East,94,0.0,0.0,92,0.00,,,0.00,meteohub,2013-10-02 04:58:00,
2013-10-02 01:03:00,60.3,57.9,29.92,East,93,0.0,0.0,92,0.00,,,0.00,meteohub,2013-10-02 05:03:00,
2013-10-02 01:08:00,60.1,57.7,29.92,East,93,0.0,0.0,92,0.00,,,0.00,meteohub,2013-10-02 05:08:00,
2013-10-02 01:13:00,60.1,57.7,29.93,East,93,0.0,0.0,92,0.00,,,0.00,meteohub,2013-10-02 05:13:00,
2013-10-02 01:18:00,60.1,58.1,29.93,East,93,0.0,0.0,93,0.00,,,0.00,meteohub,2013-10-02 05:18:00,
2013-10-02 01:23:00,60.1,58.1,29.93,East,93,0.0,0.0,93,0.00,,,0.00,meteohub,2013-10-02 05:23:00,
2013-10-02 01:28:00,59.9,57.9,29.93,East,94,0.0,0.0,93,0.00,,,0.00,meteohub,2013-10-02 05:28:00,
2013-10-02 01:33:00,59.9,57.9,29.93,East,94,0.0,0.0,93,0.00,,,0.00,meteohub,2013-10-02 05:33:00,
2013-10-02 01:38:00,59.7,57.7,29.93,East,93,0.0,0.0,93,0.00,,,0.00,meteohub,2013-10-02 05:38:00,
2013-10-02 01:43:00,59.7,57.7,29.93,East,94,0.0,0.0,93,0.00,,,0.00,meteohub,2013-10-02 05:43:00,
2013-10-02 01:48:00,59.7,57.7,29.93,East,93,0.0,0.0,93,0.00,,,0.00,meteohub,2013-10-02 05:48:00,
2013-10-02 01:53:00,59.7,57.7,29.93,East,93,0.0,0.0,93,0.00,,,0.00,meteohub,2013-10-02 05:53:00,
2013-10-02 01:58:00,59.7,57.7,29.93,East,93,0.0,0.0,93,0.00,,,0.00,meteohub,2013-10-02 05:58:00,
2013-10-02 02:03:00,59.5,57.6,29.93,East,93,0.0,0.0,93,0.00,,,0.00,meteohub,2013-10-02 06:03:00,
2013-10-02 02:08:00,59.5,57.6,29.93,East,93,0.0,0.0,93,0.00,,,0.00,meteohub,2013-10-02 06:08:00,
2013-10-02 02:13:00,59.5,57.6,29.93,East,93,0.0,0.0,93,0.00,,,0.00,meteohub,2013-10-02 06:13:00,
2013-10-02 02:18:00,59.4,57.4,29.93,East,93,0.0,0.0,93,0.00,,,0.00,meteohub,2013-10-02 06:18:00,
2013-10-02 02:24:00,59.4,57.4,29.93,East,93,0.0,0.0,93,0.00,,,0.00,meteohub,2013-10-02 06:24:00,
2013-10-02 02:29:00,59.4,57.4,29.92,East,93,0.0,0.0,93,0.00,,,0.00,meteohub,2013-10-02 06:29:00,
2013-10-02 02:34:00,59.2,57.2,29.92,East,93,0.0,0.0,93,0.00,,,0.00,meteohub,2013-10-02 06:34:00,
2013-10-02 02:39:00,59.2,57.2,29.92,East,93,0.0,0.0,93,0.00,,,0.00,meteohub,2013-10-02 06:39:00,
2013-10-02 02:44:00,59.2,57.2,29.92,East,93,0.0,0.0,93,0.00,,,0.00,meteohub,2013-10-02 06:44:00,
2013-10-02 02:49:00,59.0,57.0,29.92,East,93,0.0,0.0,93,0.00,,,0.00,meteohub,2013-10-02 06:49:00,
2013-10-02 02:54:00,58.8,57.0,29.92,East,93,0.0,0.0,94,0.00,,,0.00,meteohub,2013-10-02 06:54:00,
2013-10-02 02:59:00,58.8,57.0,29.92,East,93,0.0,0.0,94,0.00,,,0.00,meteohub,2013-10-02 06:59:00,
2013-10-02 03:04:00,58.8,57.0,29.92,East,93,0.0,0.0,94,0.00,,,0.00,meteohub,2013-10-02 07:04:00,
2013-10-02 03:09:00,58.8,57.0,29.92,East,94,0.0,0.0,94,0.00,,,0.00,meteohub,2013-10-02 07:09:00,
2013-10-02 03:14:00,58.8,57.0,29.93,East,93,0.0,0.0,94,0.00,,,0.00,meteohub,2013-10-02 07:14:00,
2013-10-02 03:19:00,58.6,56.8,29.93,East,94,0.0,0.0,94,0.00,,,0.00,meteohub,2013-10-02 07:19:00,
2013-10-02 03:24:00,58.6,56.8,29.93,East,93,0.0,0.0,94,0.00,,,0.00,meteohub,2013-10-02 07:24:00,
2013-10-02 03:29:00,58.6,56.8,29.93,East,93,0.0,0.0,94,0.00,,,0.00,meteohub,2013-10-02 07:29:00,
2013-10-02 03:34:00,58.5,56.7,29.93,East,93,0.0,0.0,94,0.00,,,0.00,meteohub,2013-10-02 07:34:00,
2013-10-02 03:39:00,58.5,56.7,29.93,East,93,0.0,0.0,94,0.00,,,0.00,meteohub,2013-10-02 07:39:00,
2013-10-02 03:44:00,58.5,56.7,29.93,East,93,0.0,0.0,94,0.00,,,0.00,meteohub,2013-10-02 07:44:00,
2013-10-02 03:49:00,58.5,56.7,29.92,East,93,0.0,0.0,94,0.00,,,0.00,meteohub,2013-10-02 07:49:00,
2013-10-02 03:54:00,59.0,57.2,29.92,East,93,0.0,0.0,94,0.00,,,0.00,meteohub,2013-10-02 07:54:00,
2013-10-02 03:59:00,59.0,57.2,29.93,North,-999,-999.0,0.0,94,0.00,,,0.00,meteohub,2013-10-02 07:59:00,
2013-10-02 04:05:00,59.0,57.2,29.92,North,-999,-999.0,0.0,94,0.00,,,0.00,meteohub,2013-10-02 08:05:00,
2013-10-02 07:44:00,57.2,56.1,29.94,North,-999,-999.0,-999.0,96,-99.99,,,0.00,meteohub,2013-10-02 11:44:00,
2013-10-02 07:49:00,57.4,56.3,29.94,North,-999,-999.0,-999.0,96,-99.99,,,0.00,meteohub,2013-10-02 11:49:00,
2013-10-02 07:54:00,57.4,56.3,29.94,East,94,0.0,-999.0,96,0.00,,,0.00,meteohub,2013-10-02 11:54:00,
2013-10-02 07:59:00,57.6,56.5,29.95,East,93,0.0,0.0,96,0.00,,,0.00,meteohub,2013-10-02 11:59:00,
2013-10-02 08:04:00,58.6,57.7,29.95,East,93,0.0,0.0,97,0.00,,,0.00,meteohub,2013-10-02 12:04:00,
2013-10-02 08:09:00,60.3,59.4,29.95,East,93,0.0,0.0,97,0.00,,,0.00,meteohub,2013-10-02 12:09:00,
2013-10-02 08:14:00,61.3,60.4,29.95,East,93,0.0,0.0,97,0.00,,,0.00,meteohub,2013-10-02 12:14:00,
2013-10-02 08:19:00,62.1,61.0,29.95,East,93,0.0,0.0,96,0.00,,,0.00,meteohub,2013-10-02 12:19:00,
2013-10-02 08:24:00,62.8,61.3,29.95,East,93,0.0,0.0,95,0.00,,,0.00,meteohub,2013-10-02 12:24:00,
2013-10-02 08:29:00,64.0,62.2,29.95,East,93,0.0,0.0,94,0.00,,,0.00,meteohub,2013-10-02 12:29:00,
2013-10-02 08:34:00,65.1,62.4,29.95,East,94,0.0,0.0,91,0.00,,,0.00,meteohub,2013-10-02 12:34:00,
2013-10-02 08:39:00,66.0,62.6,29.95,East,93,0.0,0.0,89,0.00,,,0.00,meteohub,2013-10-02 12:39:00,
2013-10-02 08:44:00,66.7,62.8,29.96,East,93,0.0,0.0,87,0.00,,,0.00,meteohub,2013-10-02 12:44:00,
2013-10-02 08:49:00,67.8,62.4,29.96,East,94,0.0,0.0,83,0.00,,,0.00,meteohub,2013-10-02 12:49:00,
2013-10-02 08:54:00,68.7,62.2,29.96,East,93,0.0,0.0,80,0.00,,,0.00,meteohub,2013-10-02 12:54:00,
2013-10-02 08:59:00,69.6,62.8,29.96,East,93,0.0,0.0,79,0.00,,,0.00,meteohub,2013-10-02 12:59:00,
2013-10-02 09:04:00,70.5,62.2,29.96,East,93,0.0,0.0,75,0.00,,,0.00,meteohub,2013-10-02 13:04:00,
2013-10-02 09:09:00,70.5,61.9,29.96,East,93,0.0,0.0,74,0.00,,,0.00,meteohub,2013-10-02 13:09:00,
2013-10-02 09:14:00,70.2,61.9,29.96,East,93,0.0,0.0,75,0.00,,,0.00,meteohub,2013-10-02 13:14:00,
2013-10-02 09:19:00,69.8,61.9,29.96,East,93,0.0,0.0,76,0.00,,,0.00,meteohub,2013-10-02 13:19:00,
2013-10-02 09:25:00,69.6,61.3,29.96,WSW,249,0.0,0.0,75,0.00,,,0.00,meteohub,2013-10-02 13:25:00,
2013-10-02 09:30:00,69.4,61.2,29.96,WSW,253,0.0,1.0,75,0.00,,,0.00,meteohub,2013-10-02 13:30:00,
2013-10-02 09:35:00,69.6,61.3,29.96,WSW,249,0.0,2.0,75,0.00,,,0.00,meteohub,2013-10-02 13:35:00,
2013-10-02 09:40:00,70.0,61.7,29.96,West,266,0.0,2.0,75,0.00,,,0.00,meteohub,2013-10-02 13:40:00,
2013-10-02 09:45:00,70.2,62.2,29.96,West,266,0.0,2.0,76,0.00,,,0.00,meteohub,2013-10-02 13:45:00,
2013-10-02 09:50:00,70.3,61.7,29.96,West,274,0.0,2.0,74,0.00,,,0.00,meteohub,2013-10-02 13:50:00,
2013-10-02 09:55:00,70.5,61.9,29.96,West,276,0.0,0.0,74,0.00,,,0.00,meteohub,2013-10-02 13:55:00,
2013-10-02 10:00:00,70.5,61.5,29.96,WNW,288,0.0,0.0,73,0.00,,,0.00,meteohub,2013-10-02 14:00:00,
2013-10-02 10:05:00,70.9,62.2,29.96,West,279,0.0,0.0,74,0.00,,,0.00,meteohub,2013-10-02 14:05:00,
2013-10-02 10:10:00,71.1,61.9,29.96,WSW,252,0.0,3.0,73,0.00,,,0.00,meteohub,2013-10-02 14:10:00,
2013-10-02 10:15:00,71.2,62.6,29.96,WSW,253,0.0,3.0,74,0.00,,,0.00,meteohub,2013-10-02 14:15:00,
2013-10-02 10:20:00,71.4,62.2,29.96,West,281,0.0,3.0,73,0.00,,,0.00,meteohub,2013-10-02 14:20:00,
2013-10-02 10:25:00,71.6,62.4,29.96,West,271,0.0,3.0,73,0.00,,,0.00,meteohub,2013-10-02 14:25:00,
2013-10-02 10:30:00,72.0,62.4,29.95,WSW,245,0.0,3.0,72,0.00,,,0.00,meteohub,2013-10-02 14:30:00,
2013-10-02 10:35:00,72.3,63.1,29.95,SW,226,1.0,2.0,73,0.00,,,0.00,meteohub,2013-10-02 14:35:00,
2013-10-02 10:40:00,72.7,63.1,29.95,WSW,252,2.0,3.0,72,0.00,,,0.00,meteohub,2013-10-02 14:40:00,
2013-10-02 10:45:00,72.7,62.8,29.95,WNW,285,1.0,3.0,71,0.00,,,0.00,meteohub,2013-10-02 14:45:00,
2013-10-02 10:50:00,73.0,63.1,29.96,WSW,239,1.0,3.0,71,0.00,,,0.00,meteohub,2013-10-02 14:50:00,
2013-10-02 10:55:00,73.0,62.6,29.95,West,268,1.0,4.0,70,0.00,,,0.00,meteohub,2013-10-02 14:55:00,
2013-10-02 11:00:00,73.2,62.8,29.95,NNW,346,0.0,5.0,70,0.00,,,0.00,meteohub,2013-10-02 15:00:00,
2013-10-02 11:05:00,73.6,63.7,29.95,WSW,255,0.0,5.0,71,0.00,,,0.00,meteohub,2013-10-02 15:05:00,
2013-10-02 11:10:00,73.9,63.9,29.95,WSW,255,0.0,5.0,71,0.00,,,0.00,meteohub,2013-10-02 15:10:00,
2013-10-02 11:16:00,74.1,63.7,29.95,West,259,2.0,2.0,70,0.00,,,0.00,meteohub,2013-10-02 15:16:00,
2013-10-02 11:21:00,74.7,64.2,29.95,West,278,0.0,3.0,70,0.00,,,0.00,meteohub,2013-10-02 15:21:00,
2013-10-02 11:26:00,75.0,63.7,29.95,ENE,72,1.0,3.0,68,0.00,,,0.00,meteohub,2013-10-02 15:26:00,
2013-10-02 11:31:00,75.2,63.9,29.94,NNW,338,1.0,3.0,68,0.00,,,0.00,meteohub,2013-10-02 15:31:00,
2013-10-02 11:33:00,75.4,63.7,29.94,West,267,0.0,3.0,67,0.00,,,0.00,meteohub,2013-10-02 15:33:00,
2013-10-02 11:38:00,75.7,63.5,29.94,West,280,1.0,3.0,66,0.00,,,0.00,meteohub,2013-10-02 15:38:00,
2013-10-02 11:43:00,76.3,63.7,29.94,SW,221,1.0,3.0,65,0.00,,,0.00,meteohub,2013-10-02 15:43:00,
2013-10-02 11:48:00,76.5,63.3,29.94,WSW,248,0.0,3.0,64,0.00,,,0.00,meteohub,2013-10-02 15:48:00,
2013-10-02 11:53:00,76.5,63.0,29.93,NNW,336,1.0,3.0,63,0.00,,,0.00,meteohub,2013-10-02 15:53:00,
2013-10-02 11:58:00,76.5,63.9,29.94,WSW,242,0.0,4.0,65,0.00,,,0.00,meteohub,2013-10-02 15:58:00,
2013-10-02 12:03:00,76.8,63.3,29.94,West,277,1.0,4.0,63,0.00,,,0.00,meteohub,2013-10-02 16:03:00,
2013-10-02 12:08:00,77.4,64.2,29.93,WNW,298,0.0,4.0,64,0.00,,,0.00,meteohub,2013-10-02 16:08:00,
2013-10-02 12:13:00,77.7,64.9,29.93,West,266,0.0,4.0,65,0.00,,,0.00,meteohub,2013-10-02 16:13:00,
2013-10-02 12:18:00,78.3,65.1,29.92,East,82,0.0,4.0,64,0.00,,,0.00,meteohub,2013-10-02 16:18:00,
2013-10-02 12:23:00,78.3,63.7,29.92,East,80,0.0,2.0,61,0.00,,,0.00,meteohub,2013-10-02 16:23:00,
2013-10-02 12:28:00,78.3,64.2,29.92,NW,307,0.0,2.0,62,0.00,,,0.00,meteohub,2013-10-02 16:28:00,
2013-10-02 12:33:00,78.4,64.8,29.92,West,269,0.0,3.0,63,0.00,,,0.00,meteohub,2013-10-02 16:33:00,
2013-10-02 12:38:00,79.0,64.8,29.91,West,267,0.0,3.0,62,0.00,,,0.00,meteohub,2013-10-02 16:38:00,
2013-10-02 12:43:00,79.5,64.9,29.91,NNE,28,0.0,3.0,61,0.00,,,0.00,meteohub,2013-10-02 16:43:00,
2013-10-02 12:48:00,79.9,65.3,29.91,West,262,0.0,2.0,61,0.00,,,0.00,meteohub,2013-10-02 16:48:00,
2013-10-02 12:54:00,79.9,63.9,29.91,West,259,0.0,2.0,58,0.00,,,0.00,meteohub,2013-10-02 16:54:00,
2013-10-02 12:58:00,80.1,64.4,29.91,WSW,256,0.0,2.0,59,0.00,,,0.00,meteohub,2013-10-02 16:58:00,
2013-10-02 13:04:00,80.2,64.6,29.91,WNW,287,0.0,2.0,59,0.00,,,0.00,meteohub,2013-10-02 17:04:00,
2013-10-02 13:09:00,80.4,66.2,29.91,West,263,1.0,3.0,62,0.00,,,0.00,meteohub,2013-10-02 17:09:00,
2013-10-02 13:14:00,80.4,64.2,29.91,West,274,1.0,3.0,58,0.00,,,0.00,meteohub,2013-10-02 17:14:00,
2013-10-02 13:19:00,80.4,64.2,29.91,West,269,1.0,3.0,58,0.00,,,0.00,meteohub,2013-10-02 17:19:00,
2013-10-02 13:24:00,80.4,64.2,29.91,West,270,2.0,5.0,58,0.00,,,0.00,meteohub,2013-10-02 17:24:00,
2013-10-02 13:29:00,80.4,64.8,29.90,WSW,252,3.0,7.0,59,0.00,,,0.00,meteohub,2013-10-02 17:29:00,
2013-10-02 13:34:00,80.4,64.8,29.90,WSW,255,0.0,7.0,59,0.00,,,0.00,meteohub,2013-10-02 17:34:00,
2013-10-02 13:39:00,80.6,64.4,29.90,WSW,252,0.0,7.0,58,0.00,,,0.00,meteohub,2013-10-02 17:39:00,
2013-10-02 13:44:00,81.1,66.0,29.90,WSW,243,1.0,3.0,60,0.00,,,0.00,meteohub,2013-10-02 17:44:00,
2013-10-02 13:49:00,81.3,65.7,29.90,West,276,0.0,3.0,59,0.00,,,0.00,meteohub,2013-10-02 17:49:00,
2013-10-02 13:54:00,81.5,64.8,29.89,WSW,258,0.0,4.0,57,0.00,,,0.00,meteohub,2013-10-02 17:54:00,
2013-10-02 13:59:00,81.7,66.0,29.89,ENE,65,2.0,4.0,59,0.00,,,0.00,meteohub,2013-10-02 17:59:00,
2013-10-02 14:04:00,81.9,65.7,29.89,West,261,1.0,4.0,58,0.00,,,0.00,meteohub,2013-10-02 18:04:00,
2013-10-02 14:09:00,81.7,64.9,29.89,WNW,298,0.0,4.0,57,0.00,,,0.00,meteohub,2013-10-02 18:09:00,
2013-10-02 14:14:00,81.9,65.1,29.89,West,269,2.0,4.0,57,0.00,,,0.00,meteohub,2013-10-02 18:14:00,
2013-10-02 14:19:00,81.9,64.6,29.89,West,269,1.0,4.0,56,0.00,,,0.00,meteohub,2013-10-02 18:19:00,
2013-10-02 14:24:00,81.9,65.7,29.89,West,271,1.0,4.0,58,0.00,,,0.00,meteohub,2013-10-02 18:24:00,
2013-10-02 14:29:00,81.9,65.1,29.89,West,262,1.0,4.0,57,0.00,,,0.00,meteohub,2013-10-02 18:29:00,
2013-10-02 14:34:00,82.2,66.0,29.89,NNE,24,0.0,4.0,58,0.00,,,0.00,meteohub,2013-10-02 18:34:00,
2013-10-02 14:40:00,82.2,64.9,29.89,West,262,1.0,4.0,56,0.00,,,0.00,meteohub,2013-10-02 18:40:00,
2013-10-02 14:45:00,82.0,64.8,29.89,WSW,258,2.0,4.0,56,0.00,,,0.00,meteohub,2013-10-02 18:45:00,
2013-10-02 14:50:00,82.0,64.8,29.89,West,259,1.0,4.0,56,0.00,,,0.00,meteohub,2013-10-02 18:50:00,
2013-10-02 14:55:00,82.2,65.5,29.89,ENE,66,0.0,4.0,57,0.00,,,0.00,meteohub,2013-10-02 18:55:00,
2013-10-02 15:00:00,82.4,65.1,29.89,WSW,256,0.0,3.0,56,0.00,,,0.00,meteohub,2013-10-02 19:00:00,
2013-10-02 15:05:00,82.2,64.9,29.89,West,262,1.0,3.0,56,0.00,,,0.00,meteohub,2013-10-02 19:05:00,
2013-10-02 15:10:00,82.6,65.8,29.89,NNW,336,0.0,3.0,57,0.00,,,0.00,meteohub,2013-10-02 19:10:00,
2013-10-02 15:15:00,82.8,66.0,29.89,West,272,1.0,3.0,57,0.00,,,0.00,meteohub,2013-10-02 19:15:00,
2013-10-02 15:20:00,82.9,66.2,29.89,NW,309,0.0,1.0,57,0.00,,,0.00,meteohub,2013-10-02 19:20:00,
2013-10-02 15:25:00,82.8,66.6,29.89,East,81,2.0,4.0,58,0.00,,,0.00,meteohub,2013-10-02 19:25:00,
2013-10-02 15:30:00,82.8,64.9,29.89,ENE,60,1.0,4.0,55,0.00,,,0.00,meteohub,2013-10-02 19:30:00,
2013-10-02 15:35:00,82.6,65.8,29.89,ESE,105,0.0,4.0,57,0.00,,,0.00,meteohub,2013-10-02 19:35:00,
2013-10-02 15:40:00,82.2,64.9,29.89,SSW,204,0.0,2.0,56,0.00,,,0.00,meteohub,2013-10-02 19:40:00,
2013-10-02 15:45:00,81.9,65.7,29.89,West,262,2.0,2.0,58,0.00,,,0.00,meteohub,2013-10-02 19:45:00,
2013-10-02 15:50:00,81.7,65.5,29.88,NE,51,1.0,3.0,58,0.00,,,0.00,meteohub,2013-10-02 19:50:00,
2013-10-02 15:55:00,81.7,64.9,29.88,West,269,0.0,3.0,57,0.00,,,0.00,meteohub,2013-10-02 19:55:00,
2013-10-02 16:00:00,81.7,65.5,29.88,West,262,0.0,4.0,58,0.00,,,0.00,meteohub,2013-10-02 20:00:00,
2013-10-02 16:05:00,81.3,65.7,29.88,WSW,250,0.0,4.0,59,0.00,,,0.00,meteohub,2013-10-02 20:05:00,
2013-10-02 16:10:00,81.1,66.0,29.88,West,266,1.0,4.0,60,0.00,,,0.00,meteohub,2013-10-02 20:10:00,
2013-10-02 16:15:00,81.0,64.8,29.88,West,267,0.0,2.0,58,0.00,,,0.00,meteohub,2013-10-02 20:15:00,
2013-10-02 16:20:00,80.6,64.9,29.88,WSW,242,0.0,3.0,59,0.00,,,0.00,meteohub,2013-10-02 20:20:00,
2013-10-02 16:25:00,80.4,64.8,29.88,NNE,33,0.0,3.0,59,0.00,,,0.00,meteohub,2013-10-02 20:25:00,
2013-10-02 16:30:00,80.2,64.6,29.88,East,81,1.0,3.0,59,0.00,,,0.00,meteohub,2013-10-02 20:30:00,
2013-10-02 16:35:00,80.1,64.9,29.88,West,262,1.0,3.0,60,0.00,,,0.00,meteohub,2013-10-02 20:35:00,
2013-10-02 16:41:00,80.1,64.9,29.88,ENE,73,1.0,3.0,60,0.00,,,0.00,meteohub,2013-10-02 20:41:00,
2013-10-02 16:46:00,79.9,65.3,29.88,West,260,1.0,2.0,61,0.00,,,0.00,meteohub,2013-10-02 20:46:00,
2013-10-02 16:51:00,79.5,64.4,29.88,NNW,329,0.0,3.0,60,0.00,,,0.00,meteohub,2013-10-02 20:51:00,
2013-10-02 16:56:00,79.5,64.9,29.88,ENE,75,0.0,3.0,61,0.00,,,0.00,meteohub,2013-10-02 20:56:00,
2013-10-02 17:01:00,79.5,64.9,29.88,NW,311,0.0,3.0,61,0.00,,,0.00,meteohub,2013-10-02 21:01:00,
2013-10-02 17:06:00,79.3,65.7,29.88,NE,49,0.0,2.0,63,0.00,,,0.00,meteohub,2013-10-02 21:06:00,
2013-10-02 17:11:00,79.2,65.5,29.88,SSE,166,0.0,2.0,63,0.00,,,0.00,meteohub,2013-10-02 21:11:00,
2013-10-02 17:16:00,78.8,65.1,29.88,SSE,162,0.0,0.0,63,0.00,,,0.00,meteohub,2013-10-02 21:16:00,
2013-10-02 17:21:00,78.4,65.3,29.88,ENE,77,0.0,0.0,64,0.00,,,0.00,meteohub,2013-10-02 21:21:00,
2013-10-02 17:26:00,78.3,65.5,29.88,East,79,0.0,0.0,65,0.00,,,0.00,meteohub,2013-10-02 21:26:00,
2013-10-02 17:31:00,77.9,65.1,29.88,ENE,78,0.0,0.0,65,0.00,,,0.00,meteohub,2013-10-02 21:31:00,
2013-10-02 17:36:00,77.7,64.9,29.88,ENE,78,0.0,0.0,65,0.00,,,0.00,meteohub,2013-10-02 21:36:00,
2013-10-02 17:41:00,77.5,64.8,29.89,ENE,78,0.0,0.0,65,0.00,,,0.00,meteohub,2013-10-02 21:41:00,
2013-10-02 17:46:00,77.2,64.9,29.89,ENE,78,0.0,1.0,66,0.00,,,0.00,meteohub,2013-10-02 21:46:00,
2013-10-02 17:51:00,77.2,64.6,29.89,ENE,78,0.0,1.0,65,0.00,,,0.00,meteohub,2013-10-02 21:51:00,
2013-10-02 17:56:00,77.2,64.9,29.89,ENE,78,0.0,1.0,66,0.00,,,0.00,meteohub,2013-10-02 21:56:00,
2013-10-02 18:01:00,76.6,64.4,29.89,ENE,78,0.0,1.0,66,0.00,,,0.00,meteohub,2013-10-02 22:01:00,
2013-10-02 18:06:00,76.3,64.0,29.89,ENE,78,0.0,0.0,66,0.00,,,0.00,meteohub,2013-10-02 22:06:00,
2013-10-02 18:11:00,75.9,64.2,29.89,ENE,78,0.0,0.0,67,0.00,,,0.00,meteohub,2013-10-02 22:11:00,
2013-10-02 18:16:00,75.7,64.0,29.89,ENE,78,0.0,0.0,67,0.00,,,0.00,meteohub,2013-10-02 22:16:00,
2013-10-02 18:21:00,75.4,64.6,29.89,ENE,78,0.0,0.0,69,0.00,,,0.00,meteohub,2013-10-02 22:21:00,
2013-10-02 18:26:00,75.0,64.2,29.89,ENE,77,0.0,0.0,69,0.00,,,0.00,meteohub,2013-10-02 22:26:00,
2013-10-02 18:31:00,74.8,64.4,29.89,ENE,78,0.0,0.0,70,0.00,,,0.00,meteohub,2013-10-02 22:31:00,
2013-10-02 18:36:00,74.5,64.0,29.89,ENE,78,0.0,0.0,70,0.00,,,0.00,meteohub,2013-10-02 22:36:00,
2013-10-02 18:41:00,74.1,63.7,29.90,ENE,78,0.0,0.0,70,0.00,,,0.00,meteohub,2013-10-02 22:41:00,
2013-10-02 18:46:00,73.9,63.9,29.90,ENE,78,0.0,0.0,71,0.00,,,0.00,meteohub,2013-10-02 22:46:00,
2013-10-02 18:51:00,73.6,63.7,29.90,ENE,78,0.0,0.0,71,0.00,,,0.00,meteohub,2013-10-02 22:51:00,
2013-10-02 18:57:00,73.2,63.7,29.90,ENE,78,0.0,0.0,72,0.00,,,0.00,meteohub,2013-10-02 22:57:00,
2013-10-02 19:02:00,72.9,63.3,29.91,ENE,78,0.0,0.0,72,0.00,,,0.00,meteohub,2013-10-02 23:02:00,
2013-10-02 19:07:00,72.7,63.5,29.91,ENE,77,0.0,0.0,73,0.00,,,0.00,meteohub,2013-10-02 23:07:00,
2013-10-02 19:12:00,72.3,63.5,29.91,ENE,78,0.0,0.0,74,0.00,,,0.00,meteohub,2013-10-02 23:12:00,
2013-10-02 19:17:00,72.1,63.3,29.91,ENE,78,0.0,0.0,74,0.00,,,0.00,meteohub,2013-10-02 23:17:00,
2013-10-02 19:22:00,72.1,63.3,29.91,ENE,78,0.0,0.0,74,0.00,,,0.00,meteohub,2013-10-02 23:22:00,
2013-10-02 19:27:00,72.1,63.3,29.91,ENE,78,0.0,0.0,74,0.00,,,0.00,meteohub,2013-10-02 23:27:00,
2013-10-02 19:32:00,72.0,63.1,29.91,ENE,78,0.0,0.0,74,0.00,,,0.00,meteohub,2013-10-02 23:32:00,
2013-10-02 19:37:00,71.8,63.0,29.92,ENE,78,0.0,0.0,74,0.00,,,0.00,meteohub,2013-10-02 23:37:00,
2013-10-02 19:42:00,71.4,63.1,29.92,ENE,78,0.0,0.0,75,0.00,,,0.00,meteohub,2013-10-02 23:42:00,
2013-10-02 19:47:00,71.2,63.0,29.92,ENE,78,0.0,0.0,75,0.00,,,0.00,meteohub,2013-10-02 23:47:00,
2013-10-02 19:50:00,71.1,63.1,29.92,ENE,78,0.0,0.0,76,0.00,,,0.00,meteohub,2013-10-02 23:50:00,
2013-10-02 19:55:00,70.7,63.1,29.93,ENE,78,0.0,0.0,77,0.00,,,0.00,meteohub,2013-10-02 23:55:00,
2013-10-02 20:00:00,70.3,63.1,29.93,ENE,78,0.0,0.0,78,0.00,,,0.00,meteohub,2013-10-03 00:00:00,
2013-10-02 20:05:00,70.3,63.1,29.93,East,82,0.0,0.0,78,0.00,,,0.00,meteohub,2013-10-03 00:05:00,
2013-10-02 20:10:00,70.5,63.3,29.93,East,84,0.0,1.0,78,0.00,,,0.00,meteohub,2013-10-03 00:10:00,
2013-10-02 20:15:00,70.9,63.3,29.93,East,84,0.0,1.0,77,0.00,,,0.00,meteohub,2013-10-03 00:15:00,
2013-10-02 20:20:00,70.9,63.3,29.94,East,83,0.0,0.0,77,0.00,,,0.00,meteohub,2013-10-03 00:20:00,
2013-10-02 20:25:00,70.9,63.0,29.94,East,82,0.0,0.0,76,0.00,,,0.00,meteohub,2013-10-03 00:25:00,
2013-10-02 20:30:00,70.9,62.6,29.94,East,84,0.0,0.0,75,0.00,,,0.00,meteohub,2013-10-03 00:30:00,
2013-10-02 20:35:00,71.1,62.4,29.94,East,84,0.0,0.0,74,0.00,,,0.00,meteohub,2013-10-03 00:35:00,
2013-10-02 20:40:00,71.2,62.6,29.94,East,84,0.0,0.0,74,0.00,,,0.00,meteohub,2013-10-03 00:40:00,
2013-10-02 20:45:00,71.2,62.6,29.94,East,84,0.0,0.0,74,0.00,,,0.00,meteohub,2013-10-03 00:45:00,
2013-10-02 20:50:00,71.1,62.4,29.94,East,84,0.0,0.0,74,0.00,,,0.00,meteohub,2013-10-03 00:50:00,
2013-10-02 20:56:00,70.9,62.2,29.94,East,84,0.0,0.0,74,0.00,,,0.00,meteohub,2013-10-03 00:56:00,
2013-10-02 21:01:00,70.9,62.2,29.94,East,84,0.0,0.0,74,0.00,,,0.00,meteohub,2013-10-03 01:01:00,
2013-10-02 21:06:00,70.5,61.9,29.94,East,84,0.0,0.0,74,0.00,,,0.00,meteohub,2013-10-03 01:06:00,
2013-10-02 21:11:00,70.3,61.7,29.95,East,84,0.0,0.0,74,0.00,,,0.00,meteohub,2013-10-03 01:11:00,
2013-10-02 21:16:00,70.2,61.9,29.95,East,84,0.0,0.0,75,0.00,,,0.00,meteohub,2013-10-03 01:16:00,
2013-10-02 21:21:00,70.0,61.7,29.95,East,84,0.0,0.0,75,0.00,,,0.00,meteohub,2013-10-03 01:21:00,
2013-10-02 21:26:00,70.2,61.5,29.95,East,84,0.0,0.0,74,0.00,,,0.00,meteohub,2013-10-03 01:26:00,
2013-10-02 21:31:00,70.3,61.7,29.95,East,83,1.0,1.0,74,0.00,,,0.00,meteohub,2013-10-03 01:31:00,
2013-10-02 21:36:00,70.3,61.7,29.95,East,84,0.0,1.0,74,0.00,,,0.00,meteohub,2013-10-03 01:36:00,
2013-10-02 21:41:00,70.2,61.5,29.95,East,84,0.0,1.0,74,0.00,,,0.00,meteohub,2013-10-03 01:41:00,
2013-10-02 21:46:00,70.0,61.3,29.95,East,84,0.0,1.0,74,0.00,,,0.00,meteohub,2013-10-03 01:46:00,
2013-10-02 21:51:00,69.6,61.3,29.96,East,83,0.0,0.0,75,0.00,,,0.00,meteohub,2013-10-03 01:51:00,
2013-10-02 21:56:00,69.4,61.2,29.96,East,83,0.0,0.0,75,0.00,,,0.00,meteohub,2013-10-03 01:56:00,
2013-10-02 22:01:00,69.3,61.3,29.96,East,84,0.0,0.0,76,0.00,,,0.00,meteohub,2013-10-03 02:01:00,
2013-10-02 22:05:00,69.1,61.5,29.96,East,84,0.0,0.0,77,0.00,,,0.00,meteohub,2013-10-03 02:05:00,
2013-10-02 22:10:00,68.7,61.5,29.96,East,83,0.0,0.0,78,0.00,,,0.00,meteohub,2013-10-03 02:10:00,
2013-10-02 22:15:00,68.4,61.2,29.96,East,84,0.0,0.0,78,0.00,,,0.00,meteohub,2013-10-03 02:15:00,
2013-10-02 22:20:00,68.2,61.3,29.96,East,83,0.0,0.0,79,0.00,,,0.00,meteohub,2013-10-03 02:20:00,
2013-10-02 22:25:00,67.8,61.0,29.97,East,84,0.0,0.0,79,0.00,,,0.00,meteohub,2013-10-03 02:25:00,
2013-10-02 22:30:00,67.5,61.2,29.97,East,83,0.0,0.0,80,0.00,,,0.00,meteohub,2013-10-03 02:30:00,
2013-10-02 22:35:00,67.1,60.8,29.97,East,83,0.0,0.0,80,0.00,,,0.00,meteohub,2013-10-03 02:35:00,
2013-10-02 22:40:00,66.7,60.8,29.98,East,84,0.0,0.0,81,0.00,,,0.00,meteohub,2013-10-03 02:40:00,
2013-10-02 22:45:00,66.6,60.6,29.98,East,84,0.0,0.0,81,0.00,,,0.00,meteohub,2013-10-03 02:45:00,
2013-10-02 22:50:00,66.2,60.3,29.98,East,83,0.0,0.0,81,0.00,,,0.00,meteohub,2013-10-03 02:50:00,
2013-10-02 22:55:00,66.0,60.4,29.98,East,84,0.0,0.0,82,0.00,,,0.00,meteohub,2013-10-03 02:55:00,
2013-10-02 23:00:00,65.8,60.3,29.98,East,83,0.0,0.0,82,0.00,,,0.00,meteohub,2013-10-03 03:00:00,
2013-10-02 23:05:00,65.7,60.4,29.98,East,84,0.0,0.0,83,0.00,,,0.00,meteohub,2013-10-03 03:05:00,
2013-10-02 23:10:00,65.5,60.4,29.98,East,83,0.0,0.0,84,0.00,,,0.00,meteohub,2013-10-03 03:10:00,
2013-10-02 23:15:00,65.3,60.3,29.98,East,83,0.0,0.0,84,0.00,,,0.00,meteohub,2013-10-03 03:15:00,
2013-10-02 23:20:00,65.1,60.1,29.98,East,83,0.0,0.0,84,0.00,,,0.00,meteohub,2013-10-03 03:20:00,
2013-10-02 23:25:00,64.9,60.3,29.99,East,83,0.0,0.0,85,0.00,,,0.00,meteohub,2013-10-03 03:25:00,
2013-10-02 23:30:00,64.8,60.1,29.99,East,84,0.0,0.0,85,0.00,,,0.00,meteohub,2013-10-03 03:30:00,
2013-10-02 23:35:00,64.6,59.9,29.99,East,84,0.0,0.0,85,0.00,,,0.00,meteohub,2013-10-03 03:35:00,
2013-10-02 23:41:00,64.4,59.7,29.99,East,83,0.0,0.0,85,0.00,,,0.00,meteohub,2013-10-03 03:41:00,
2013-10-02 23:46:00,64.2,59.9,29.99,East,84,0.0,0.0,86,0.00,,,0.00,meteohub,2013-10-03 03:46:00,
2013-10-02 23:51:00,64.0,59.7,29.99,East,84,0.0,0.0,86,0.00,,,0.00,meteohub,2013-10-03 03:51:00,
2013-10-02 23:56:00,63.9,59.5,29.99,East,84,0.0,0.0,86,0.00,,,0.00,meteohub,2013-10-03 03:56:00,